Wind_Speed
15 15 15 16 15 15 15 14 14 13 11 11 11 11 11 11 10 9 9 8 7 7 7 7 6 6 5 5 5 5 5 5 4 3 3 3 3 3 2 3 3 2 2
15 16 16 17 17 17 16 16 15 14 13 13 13 12 12 12 11 11 10 9 9 9 8 8 8 7 6 6 6 6 6 5 5 4 4 4 4 3 3 3 3 2 2
16 17 17 18 18 18 17 16 16 16 15 14 14 14 13 13 12 12 12 11 10 10 9 9 9 9 7 8 8 7 7 6 6 5 5 4 5 4 4 3 3 2 2
18 18 19 19 19 19 18 18 17 17 16 15 16 16 15 14 14 13 13 13 12 11 11 10 9 9 9 9 9 9 8 8 7 7 6 5 5 5 4 4 4 3 3
21 20 20 20 20 20 20 19 19 18 17 17 17 17 17 17 16 15 14 14 13 13 13 12 11 10 10 10 10 10 10 9 9 8 8 7 6 6 5 5 4 4 4
23 22 22 22 22 21 22 21 21 20 19 19 18 18 19 18 19 17 16 16 15 15 14 14 13 12 12 12 12 11 11 11 10 10 9 9 8 8 7 7 6 5 5
25 24 24 24 24 24 24 23 23 22 22 21 20 20 20 20 20 20 19 18 17 17 16 16 15 15 14 14 14 14 13 13 12 11 11 11 10 9 9 8 7 7 7
26 26 26 26 25 26 26 26 25 24 24 23 23 22 22 22 22 22 21 20 20 19 19 18 17 17 17 16 16 16 16 15 14 13 13 12 12 11 11 10 9 9 8
28 28 28 28 27 27 27 27 27 26 26 25 25 24 24 24 24 24 23 23 22 22 21 20 20 19 19 19 18 18 17 17 16 15 15 14 14 13 12 12 11 11 10
29 29 29 29 29 28 29 29 28 28 27 27 26 26 26 26 26 25 25 25 25 24 24 23 23 22 21 21 21 21 20 19 19 18 17 17 16 16 15 14 13 13 12
30 30 30 30 30 30 30 30 30 29 29 29 28 28 28 28 28 27 27 27 27 26 26 25 25 25 24 24 23 23 23 22 21 20 19 19 18 18 17 17 16 15 14
31 31 31 32 32 31 31 31 31 31 31 30 31 30 30 30 30 29 29 29 28 28 28 28 27 27 27 26 25 25 25 24 23 23 22 21 21 20 20 19 19 18 17
33 33 33 33 33 33 33 33 33 32 32 32 32 32 32 32 32 31 31 30 30 30 30 30 29 29 29 29 28 28 27 27 26 25 25 24 23 23 22 22 21 21 20
35 34 35 34 35 36 36 35 35 35 34 34 34 33 33 33 33 33 33 32 32 32 32 32 32 32 32 31 31 30 30 29 29 28 27 27 26 26 25 24 24 23 23
37 37 37 38 37 37 38 38 37 37 37 37 36 36 35 35 35 35 35 35 35 35 35 35 34 34 34 34 34 33 32 32 31 31 30 29 28 28 28 27 27 26 25
39 39 38 39 39 39 39 40 39 40 39 39 39 38 37 37 37 37 37 37 37 37 37 37 36 36 36 36 36 36 35 34 34 33 33 32 31 31 30 30 29 28 28
40 40 40 40 41 41 41 41 40 40 40 40 40 39 39 39 39 39 39 39 39 39 40 39 38 38 38 38 38 38 37 37 37 36 36 35 34 34 33 32 32 31 30
42 42 42 42 42 42 43 43 43 42 41 41 41 41 41 41 41 41 41 41 42 42 42 42 41 40 40 40 40 40 39 39 39 39 39 38 37 37 35 34 34 33 32
43 43 43 43 43 43 43 43 44 44 43 43 43 42 42 43 43 43 43 44 44 43 43 43 43 43 43 43 43 43 43 42 42 42 41 40 40 39 38 37 36 36 35
42 43 43 44 44 45 45 45 45 45 45 44 44 44 44 44 44 44 44 44 45 45 45 45 45 45 45 46 46 46 46 45 45 45 44 43 43 42 41 40 40 39 38
42 43 44 44 45 45 46 47 46 47 46 46 45 45 45 45 45 45 45 45 45 46 47 48 47 47 47 48 48 48 48 48 47 47 46 46 45 44 43 42 42 42 41
42 42 43 44 44 46 47 48 48 47 47 47 47 46 46 46 46 45 46 46 47 47 48 49 49 49 49 49 49 49 49 50 50 49 49 48 47 46 46 45 44 44 43
42 43 44 44 44 46 47 47 48 48 48 48 48 47 48 48 48 48 47 48 48 49 49 50 50 50 50 51 51 51 52 51 51 51 50 50 50 49 49 48 47 46 46
42 43 43 44 45 46 47 47 47 48 48 48 49 48 49 49 49 50 50 50 50 50 51 51 52 52 51 51 52 53 53 53 52 52 52 51 52 52 51 51 49 48 48
42 43 42 44 45 46 47 47 47 47 48 48 48 48 49 50 51 51 52 51 51 51 52 53 53 53 53 52 52 53 53 54 53 53 52 51 52 53 53 52 52 51 50
41 42 42 43 45 45 46 47 47 48 48 48 48 48 49 50 51 51 52 52 52 52 52 53 53 54 54 54 52 53 52 52 52 53 52 51 52 51 52 52 52 51 51
Wind_Direction
243 241 240 240 240 241 240 242 243 244 243 241 237 234 231 228 229 228 226 226 226 224 221 221 220 220 217 214 209 206 202 200 199 196 191 186 182 172 160 154 140 122 111
246 245 243 241 242 243 243 242 243 243 242 241 238 237 237 233 233 234 232 229 228 228 226 227 227 227 225 218 214 213 209 208 206 204 201 194 188 185 180 171 156 142 134
247 246 245 244 243 244 244 243 243 242 242 241 240 238 237 235 234 234 234 232 232 233 232 234 233 229 228 223 221 220 217 214 213 214 214 208 202 201 192 186 180 169 170
247 248 248 247 245 244 244 243 242 242 241 242 240 238 238 236 235 235 235 234 235 236 236 236 239 236 230 228 227 227 225 223 220 220 220 217 211 211 208 204 206 204 204
249 249 249 248 246 245 244 242 242 241 240 242 242 240 240 239 238 238 238 236 237 238 239 239 240 243 239 233 231 232 229 228 226 227 226 224 221 221 223 224 222 222 226
251 250 249 248 247 246 245 243 242 243 242 243 244 244 242 242 240 240 240 241 242 242 242 242 244 246 245 240 235 235 232 231 230 230 230 230 230 230 232 231 230 231 230
251 251 250 249 248 247 245 244 244 244 245 245 245 247 246 244 241 241 242 243 244 244 244 244 245 247 246 245 242 238 236 234 233 232 232 234 235 237 239 238 236 238 238
253 252 251 250 249 248 246 244 244 245 246 246 247 248 250 250 248 245 245 246 247 247 247 246 246 247 246 246 244 242 238 236 235 235 234 236 236 237 240 242 242 243 246
254 253 252 251 250 248 247 245 244 245 246 247 248 249 250 250 251 250 248 249 250 250 250 250 250 248 246 246 246 243 241 238 235 236 236 237 238 239 240 244 246 246 248
254 253 252 251 250 248 247 246 245 246 246 247 249 250 251 251 251 252 251 251 252 252 253 252 252 251 248 247 246 246 244 242 238 237 238 240 240 242 244 245 247 249 251
252 252 251 250 249 248 247 247 247 247 248 249 250 251 251 252 252 253 253 252 252 253 254 254 253 252 250 250 248 247 246 244 242 242 241 242 243 244 246 248 249 250 253
252 251 251 250 250 249 248 248 248 248 249 250 251 252 253 253 254 254 254 253 253 253 254 255 254 253 251 251 250 248 247 246 244 244 245 245 244 246 248 249 250 251 253
252 251 251 251 250 250 250 250 250 250 250 251 252 253 254 254 254 254 255 254 253 253 253 254 254 254 252 251 251 251 250 248 246 246 246 247 247 246 247 249 250 251 253
252 252 252 252 252 251 251 251 252 252 251 252 252 254 254 254 254 254 255 255 255 254 253 253 253 254 253 252 251 251 251 250 249 247 247 247 248 248 248 249 251 252 254
253 253 253 254 253 252 252 253 253 253 252 252 253 254 255 255 255 255 255 256 256 255 254 253 253 253 253 253 252 252 251 251 251 249 248 248 249 249 250 251 251 252 253
253 253 253 253 254 253 253 253 254 254 254 254 254 255 256 257 257 257 257 256 257 256 255 254 253 253 253 252 253 252 252 252 253 251 249 249 249 250 250 251 252 251 252
253 253 253 253 253 254 253 253 253 254 254 255 256 256 256 257 258 258 258 257 257 257 256 255 254 253 253 253 253 253 252 253 253 252 250 250 250 250 250 251 251 252 252
253 253 252 252 253 253 253 253 253 254 255 255 256 256 257 258 259 259 259 258 258 258 257 256 255 254 253 253 253 253 253 253 253 253 251 251 251 251 251 251 251 252 253
254 253 252 252 252 253 253 253 254 255 256 256 257 258 259 259 259 260 260 259 258 258 258 257 257 256 255 254 253 253 253 254 253 254 252 251 250 251 251 251 251 251 253
255 254 252 252 253 253 253 254 255 256 257 258 258 259 260 260 259 260 260 259 258 258 258 257 257 256 256 255 254 253 253 253 254 253 253 252 251 251 251 251 251 252 253
255 254 253 253 253 253 254 255 256 256 257 259 260 260 260 259 259 260 260 260 259 258 258 258 257 256 257 257 255 254 254 254 254 253 252 251 251 251 251 251 252 252 253
255 255 254 254 254 254 255 256 256 257 257 258 259 260 260 260 260 260 261 262 261 260 259 259 259 258 258 258 257 255 254 254 254 253 252 251 250 251 251 250 251 252 252
255 255 254 254 256 256 256 256 257 258 258 258 258 259 260 261 261 262 263 262 262 261 260 260 260 260 259 259 257 256 256 254 253 253 252 251 250 250 250 251 251 251 251
256 256 255 256 257 258 257 257 258 258 259 259 258 259 260 261 263 263 264 263 262 262 262 261 261 261 260 260 259 258 257 256 254 253 251 251 250 250 250 251 251 250 250
257 256 256 258 258 259 258 259 259 259 258 259 259 259 260 262 264 265 265 265 263 262 262 261 262 261 261 261 260 259 258 256 254 253 251 250 250 249 249 250 250 250 250
258 259 259 260 260 260 260 259 260 259 259 259 260 261 261 263 266 266 265 264 263 262 262 261 261 261 261 261 260 259 258 256 254 252 251 250 250 248 248 249 250 251 251
Height
5831 5832 5832 5834 5835 5836 5837 5838 5839 5839 5840 5841 5841 5842 5843 5844 5845 5845 5846 5847 5847 5848 5849 5849 5850 5850 5850 5851 5852 5852 5853 5854 5854 5855 5855 5856 5856 5857 5857 5857 5858 5858 5859
5829 5830 5830 5831 5832 5833 5834 5835 5836 5837 5838 5839 5839 5840 5841 5842 5843 5844 5845 5845 5846 5847 5847 5848 5848 5849 5850 5850 5851 5852 5852 5853 5854 5854 5855 5855 5856 5856 5857 5857 5858 5858 5859
5826 5827 5828 5829 5830 5831 5832 5833 5834 5835 5835 5836 5837 5838 5839 5840 5841 5842 5843 5843 5844 5845 5846 5847 5847 5848 5849 5849 5850 5851 5852 5852 5853 5854 5854 5855 5855 5856 5857 5857 5857 5858 5858
5823 5824 5824 5826 5827 5828 5829 5830 5831 5832 5833 5834 5835 5836 5837 5838 5839 5840 5841 5842 5842 5843 5844 5845 5845 5846 5847 5848 5849 5850 5850 5851 5852 5853 5854 5854 5855 5855 5856 5856 5857 5857 5858
5819 5820 5821 5822 5823 5824 5825 5827 5828 5829 5830 5831 5832 5833 5834 5836 5837 5838 5839 5840 5840 5841 5842 5843 5844 5845 5845 5846 5847 5848 5849 5850 5851 5852 5852 5853 5854 5854 5855 5855 5856 5856 5857
5815 5816 5817 5818 5819 5820 5822 5823 5824 5826 5827 5828 5829 5830 5831 5832 5834 5835 5836 5837 5838 5839 5839 5840 5841 5842 5843 5844 5845 5846 5847 5848 5849 5850 5851 5852 5853 5853 5854 5854 5855 5855 5856
5810 5811 5812 5813 5814 5816 5817 5819 5820 5822 5823 5824 5825 5826 5828 5829 5830 5831 5832 5834 5835 5836 5836 5837 5838 5839 5840 5842 5843 5844 5845 5846 5847 5848 5849 5850 5851 5851 5852 5853 5853 5854 5854
5805 5806 5807 5808 5810 5811 5812 5814 5815 5817 5819 5820 5821 5822 5824 5825 5826 5827 5828 5830 5831 5832 5833 5834 5835 5836 5837 5838 5840 5841 5842 5843 5844 5846 5847 5848 5849 5849 5850 5851 5852 5852 5853
5799 5801 5802 5803 5804 5805 5807 5808 5810 5812 5813 5815 5816 5818 5819 5820 5822 5823 5824 5825 5827 5828 5829 5830 5831 5832 5833 5835 5836 5837 5839 5840 5841 5843 5844 5845 5846 5847 5848 5849 5849 5850 5851
5793 5794 5795 5797 5798 5799 5801 5803 5805 5806 5808 5810 5811 5813 5814 5815 5817 5818 5819 5821 5822 5823 5825 5826 5827 5828 5829 5830 5832 5833 5835 5836 5838 5839 5841 5842 5843 5844 5845 5846 5847 5847 5848
5787 5788 5789 5790 5792 5793 5795 5797 5798 5800 5802 5804 5805 5807 5808 5810 5811 5812 5814 5815 5817 5818 5819 5821 5822 5823 5824 5825 5827 5829 5830 5832 5834 5835 5837 5838 5839 5840 5842 5843 5844 5844 5845
5780 5781 5782 5784 5785 5787 5789 5790 5792 5794 5796 5797 5799 5801 5802 5804 5805 5807 5808 5809 5811 5812 5814 5815 5816 5817 5819 5820 5822 5823 5825 5827 5829 5831 5832 5834 5835 5836 5838 5839 5840 5841 5842
5772 5773 5775 5777 5778 5780 5782 5783 5785 5787 5789 5791 5792 5794 5795 5797 5798 5800 5801 5803 5804 5806 5807 5808 5810 5811 5813 5814 5816 5818 5819 5821 5823 5825 5827 5829 5830 5832 5833 5834 5836 5837 5838
5764 5765 5767 5769 5771 5772 5774 5776 5777 5779 5781 5783 5785 5786 5788 5789 5791 5792 5794 5796 5797 5798 5800 5802 5803 5804 5806 5808 5810 5811 5813 5815 5817 5819 5821 5823 5825 5826 5828 5829 5831 5832 5833
5754 5756 5758 5760 5762 5764 5766 5767 5769 5771 5773 5774 5776 5778 5780 5781 5783 5784 5786 5788 5789 5790 5792 5794 5795 5797 5799 5801 5802 5804 5806 5808 5811 5813 5815 5816 5818 5820 5822 5823 5825 5826 5827
5744 5746 5748 5750 5752 5754 5756 5758 5760 5762 5764 5765 5767 5769 5771 5772 5774 5776 5777 5779 5780 5782 5783 5785 5787 5789 5791 5792 5794 5796 5798 5801 5803 5805 5807 5810 5812 5813 5815 5817 5818 5820 5821
5734 5736 5737 5740 5742 5744 5746 5748 5750 5752 5754 5756 5757 5759 5761 5762 5764 5766 5768 5769 5771 5772 5774 5776 5778 5780 5782 5784 5786 5788 5790 5792 5795 5797 5799 5802 5804 5806 5808 5809 5811 5813 5814
5722 5724 5726 5728 5731 5733 5735 5737 5740 5742 5744 5745 5747 5748 5750 5752 5753 5755 5757 5759 5760 5762 5764 5766 5768 5770 5772 5774 5776 5779 5781 5783 5786 5788 5790 5793 5795 5798 5800 5802 5803 5805 5807
5711 5713 5715 5717 5720 5722 5724 5726 5729 5731 5733 5734 5736 5737 5739 5740 5742 5744 5745 5747 5749 5751 5753 5755 5757 5759 5761 5764 5766 5768 5771 5773 5776 5778 5780 5783 5786 5788 5791 5793 5795 5797 5799
5699 5701 5703 5705 5708 5710 5712 5714 5717 5719 5721 5722 5724 5726 5727 5728 5729 5731 5733 5735 5737 5739 5741 5743 5745 5747 5750 5752 5755 5757 5760 5762 5765 5767 5770 5772 5775 5778 5780 5783 5786 5788 5790
5687 5688 5691 5693 5696 5698 5700 5702 5705 5707 5709 5711 5712 5713 5714 5716 5717 5719 5721 5722 5724 5726 5728 5730 5733 5735 5737 5739 5742 5745 5747 5749 5752 5755 5758 5761 5764 5767 5769 5772 5775 5778 5780
5675 5676 5678 5681 5683 5685 5688 5690 5692 5694 5696 5698 5699 5700 5702 5703 5705 5706 5708 5709 5711 5713 5715 5717 5719 5721 5723 5725 5728 5731 5734 5737 5739 5742 5744 5748 5751 5754 5757 5760 5763 5766 5770
5663 5664 5666 5669 5670 5672 5674 5676 5678 5680 5682 5684 5686 5688 5689 5690 5692 5693 5694 5696 5697 5699 5701 5703 5704 5707 5709 5711 5713 5715 5719 5722 5725 5728 5731 5734 5737 5741 5744 5747 5751 5754 5757
5652 5653 5654 5656 5658 5659 5661 5663 5665 5667 5669 5671 5673 5674 5676 5677 5678 5680 5681 5682 5683 5685 5686 5688 5690 5692 5694 5697 5698 5700 5703 5706 5709 5713 5717 5720 5723 5726 5730 5734 5738 5741 5745
5640 5641 5643 5645 5646 5647 5649 5650 5652 5654 5656 5657 5659 5661 5662 5663 5665 5666 5667 5668 5669 5670 5671 5673 5675 5676 5678 5681 5683 5685 5687 5690 5693 5696 5702 5706 5708 5712 5715 5719 5723 5727 5731
5629 5630 5632 5632 5634 5635 5636 5638 5639 5641 5643 5644 5646 5648 5649 5650 5651 5651 5652 5653 5654 5655 5656 5658 5660 5661 5663 5665 5667 5669 5671 5675 5677 5680 5685 5689 5693 5697 5700 5704 5709 5713 5717